Voltar ao catálogo

FENGYUN 1C DEB

AtivoSSO
NORAD 31217·DEBRIS·🇨🇳 China

Lançado May 10, 1999 de Taiyuan Satellite Launch Center

Loading…

Próximas Passagens (próximas 24 horas)

TLE

AtualizadoSource: Space-Track

Época: Sep 13, 2026, 07:21 UTC

1 31217U 99025BKX 26256.30683750  .00000731  00000-0  35812-3 0  9995
2 31217  98.6407 261.8619 0099743  90.4756 270.7850 14.18185328  2075

Acompanhe FENGYUN 1C DEB em tempo real com AllMySat

Download on the App Store